Time,TemperatureF,DewpointF,PressureIn,WindDirection,WindDirectionDegrees,WindSpeedMPH,WindSpeedGustMPH,Humidity,HourlyPrecipIn,Conditions,Clouds,dailyrainin,SoftwareType,DateUTC
2013-05-30 00:01:00,51.0,49.0,29.93,SSW,199,4.0,-999.0,92,-99.99,,,-99.99,,2013-05-30 07:01:00,
2013-05-30 00:11:00,51.0,49.0,29.93,SSW,199,4.0,-999.0,92,-99.99,,,-99.99,,2013-05-30 07:11:00,
2013-05-30 00:21:00,52.0,49.0,29.93,SSE,164,4.0,-999.0,91,-99.99,,,-99.99,,2013-05-30 07:21:00,
2013-05-30 00:31:00,52.0,49.0,29.93,South,176,4.0,-999.0,91,-99.99,,,-99.99,,2013-05-30 07:31:00,
2013-05-30 00:42:00,52.0,49.0,29.93,South,176,4.0,-999.0,91,-99.99,,,-99.99,,2013-05-30 07:42:00,
2013-05-30 00:52:00,52.0,49.0,29.93,South,184,4.0,-999.0,91,-99.99,,,-99.99,,2013-05-30 07:52:00,
2013-05-30 01:01:00,51.0,48.0,29.93,SSE,162,5.0,-999.0,91,-99.99,,,-99.99,,2013-05-30 08:01:00,
2013-05-30 01:11:00,51.0,48.0,29.93,SSE,162,5.0,-999.0,91,-99.99,,,-99.99,,2013-05-30 08:11:00,
2013-05-30 01:21:00,51.0,48.0,29.94,SSE,164,4.0,-999.0,91,-99.99,,,-99.99,,2013-05-30 08:21:00,
2013-05-30 01:31:00,51.0,48.0,29.94,SW,215,3.0,-999.0,91,-99.99,,,-99.99,,2013-05-30 08:31:00,
2013-05-30 01:41:00,51.0,48.0,29.94,SW,215,3.0,-999.0,91,-99.99,,,-99.99,,2013-05-30 08:41:00,
2013-05-30 01:52:00,51.0,48.0,29.95,South,173,4.0,-999.0,91,-99.99,,,-99.99,,2013-05-30 08:52:00,
2013-05-30 02:01:00,51.0,48.0,29.95,South,187,4.0,-999.0,91,-99.99,,,-99.99,,2013-05-30 09:01:00,
2013-05-30 02:11:00,51.0,48.0,29.95,South,187,4.0,-999.0,91,-99.99,,,-99.99,,2013-05-30 09:11:00,
2013-05-30 02:21:00,51.0,48.0,29.96,South,178,4.0,-999.0,90,-99.99,,,-99.99,,2013-05-30 09:21:00,
2013-05-30 02:32:00,50.0,47.0,29.96,SE,138,4.0,-999.0,91,-99.99,,,-99.99,,2013-05-30 09:32:00,
2013-05-30 02:42:00,50.0,47.0,29.96,SE,138,4.0,-999.0,91,-99.99,,,-99.99,,2013-05-30 09:42:00,
2013-05-30 02:53:00,50.0,47.0,29.96,SSE,164,4.0,-999.0,91,-99.99,,,-99.99,,2013-05-30 09:53:00,
2013-05-30 03:02:00,50.0,47.0,29.97,SSW,195,5.0,-999.0,91,-99.99,,,-99.99,,2013-05-30 10:02:00,
2013-05-30 03:12:00,50.0,47.0,29.97,SSW,195,5.0,-999.0,91,-99.99,,,-99.99,,2013-05-30 10:12:00,
2013-05-30 03:22:00,49.0,46.0,29.97,SSW,199,5.0,-999.0,91,-99.99,,,-99.99,,2013-05-30 10:22:00,
2013-05-30 03:32:00,49.0,46.0,29.97,SSE,160,3.0,-999.0,90,-99.99,,,-99.99,,2013-05-30 10:32:00,
2013-05-30 03:42:00,49.0,46.0,29.97,SSE,160,3.0,-999.0,90,-99.99,,,-99.99,,2013-05-30 10:42:00,
2013-05-30 03:52:00,49.0,46.0,29.98,SSE,148,4.0,-999.0,90,-99.99,,,-99.99,,2013-05-30 10:52:00,
2013-05-30 04:03:00,49.0,46.0,29.98,South,175,3.0,-999.0,90,-99.99,,,-99.99,,2013-05-30 11:03:00,
2013-05-30 04:12:00,49.0,46.0,29.98,South,175,3.0,-999.0,90,-99.99,,,-99.99,,2013-05-30 11:12:00,
2013-05-30 04:21:00,49.0,46.0,29.98,South,190,4.0,-999.0,90,-99.99,,,-99.99,,2013-05-30 11:21:00,
2013-05-30 04:32:00,49.0,46.0,29.98,South,175,4.0,-999.0,90,-99.99,,,-99.99,,2013-05-30 11:32:00,
2013-05-30 04:42:00,49.0,46.0,29.98,South,175,4.0,-999.0,90,-99.99,,,-99.99,,2013-05-30 11:42:00,
2013-05-30 04:52:00,49.0,46.0,29.99,South,181,4.0,-999.0,90,-99.99,,,-99.99,,2013-05-30 11:52:00,
2013-05-30 05:01:00,49.0,46.0,29.99,South,173,5.0,-999.0,90,-99.99,,,-99.99,,2013-05-30 12:01:00,
2013-05-30 05:11:00,49.0,46.0,29.99,South,173,5.0,-999.0,90,-99.99,,,-99.99,,2013-05-30 12:11:00,
2013-05-30 05:21:00,49.0,46.0,29.99,SSW,201,2.0,-999.0,90,-99.99,,,-99.99,,2013-05-30 12:21:00,
2013-05-30 05:32:00,49.0,46.0,30.00,SW,233,1.0,-999.0,90,-99.99,,,-99.99,,2013-05-30 12:32:00,
2013-05-30 05:42:00,49.0,46.0,30.00,SW,233,1.0,-999.0,90,-99.99,,,-99.99,,2013-05-30 12:42:00,
2013-05-30 05:52:00,48.0,45.0,30.01,South,181,2.0,-999.0,90,-99.99,,,-99.99,,2013-05-30 12:52:00,
2013-05-30 06:01:00,48.0,45.0,30.01,ESE,117,2.0,-999.0,90,-99.99,,,-99.99,,2013-05-30 13:01:00,
2013-05-30 06:11:00,48.0,45.0,30.01,ESE,117,2.0,-999.0,90,-99.99,,,-99.99,,2013-05-30 13:11:00,
2013-05-30 06:21:00,49.0,46.0,30.01,South,180,3.0,-999.0,90,-99.99,,,-99.99,,2013-05-30 13:21:00,
2013-05-30 06:32:00,49.0,46.0,30.01,South,169,3.0,-999.0,90,-99.99,,,-99.99,,2013-05-30 13:32:00,
2013-05-30 06:41:00,49.0,46.0,30.01,South,169,3.0,-999.0,90,-99.99,,,-99.99,,2013-05-30 13:41:00,
2013-05-30 06:52:00,49.0,46.0,30.01,South,176,4.0,-999.0,90,-99.99,,,-99.99,,2013-05-30 13:52:00,
2013-05-30 07:01:00,50.0,47.0,30.01,South,189,4.0,-999.0,90,-99.99,,,-99.99,,2013-05-30 14:01:00,
2013-05-30 07:11:00,50.0,47.0,30.01,South,189,4.0,-999.0,90,-99.99,,,-99.99,,2013-05-30 14:11:00,
2013-05-30 07:21:00,50.0,47.0,30.02,South,180,4.0,-999.0,89,-99.99,,,-99.99,,2013-05-30 14:21:00,
2013-05-30 07:32:00,50.0,47.0,30.03,South,169,3.0,-999.0,88,-99.99,,,-99.99,,2013-05-30 14:32:00,
2013-05-30 07:42:00,50.0,47.0,30.03,South,169,3.0,-999.0,88,-99.99,,,-99.99,,2013-05-30 14:42:00,
2013-05-30 07:51:00,50.0,47.0,30.03,SE,146,4.0,-999.0,88,-99.99,,,-99.99,,2013-05-30 14:51:00,
2013-05-30 08:01:00,50.0,47.0,30.03,SSE,166,4.0,-999.0,88,-99.99,,,-99.99,,2013-05-30 15:01:00,
2013-05-30 08:11:00,50.0,47.0,30.03,SSE,166,4.0,-999.0,88,-99.99,,,-99.99,,2013-05-30 15:11:00,
2013-05-30 08:22:00,51.0,48.0,30.04,SSW,211,4.0,-999.0,88,-99.99,,,-99.99,,2013-05-30 15:22:00,
2013-05-30 08:33:00,51.0,48.0,30.05,SSW,196,4.0,-999.0,88,-99.99,,,-99.99,,2013-05-30 15:33:00,
2013-05-30 08:42:00,51.0,48.0,30.05,SSW,196,4.0,-999.0,88,-99.99,,,-99.99,,2013-05-30 15:42:00,
2013-05-30 08:52:00,52.0,48.0,30.05,South,185,3.0,-999.0,87,-99.99,,,-99.99,,2013-05-30 15:52:00,
2013-05-30 09:03:00,52.0,48.0,30.05,SE,133,4.0,-999.0,86,-99.99,,,-99.99,,2013-05-30 16:03:00,
2013-05-30 09:12:00,52.0,48.0,30.05,SE,133,4.0,-999.0,86,-99.99,,,-99.99,,2013-05-30 16:12:00,
2013-05-30 09:22:00,52.0,48.0,30.06,South,188,3.0,-999.0,85,-99.99,,,-99.99,,2013-05-30 16:22:00,
2013-05-30 09:33:00,53.0,48.0,30.06,SSE,150,3.0,-999.0,84,-99.99,,,-99.99,,2013-05-30 16:33:00,
2013-05-30 09:42:00,53.0,48.0,30.06,SSE,150,3.0,-999.0,84,-99.99,,,-99.99,,2013-05-30 16:42:00,
2013-05-30 09:52:00,53.0,48.0,30.06,SSW,199,5.0,-999.0,82,-99.99,,,-99.99,,2013-05-30 16:52:00,
2013-05-30 10:02:00,53.0,47.0,30.06,South,173,5.0,-999.0,81,-99.99,,,-99.99,,2013-05-30 17:02:00,
2013-05-30 10:11:00,53.0,47.0,30.06,South,173,5.0,-999.0,81,-99.99,,,-99.99,,2013-05-30 17:11:00,
2013-05-30 10:22:00,54.0,48.0,30.06,SSE,157,5.0,-999.0,81,-99.99,,,-99.99,,2013-05-30 17:22:00,
2013-05-30 10:32:00,54.0,48.0,30.06,SSE,165,5.0,-999.0,81,-99.99,,,-99.99,,2013-05-30 17:32:00,
2013-05-30 10:42:00,54.0,48.0,30.06,SSE,165,5.0,-999.0,81,-99.99,,,-99.99,,2013-05-30 17:42:00,
2013-05-30 10:52:00,55.0,49.0,30.06,South,171,5.0,-999.0,79,-99.99,,,-99.99,,2013-05-30 17:52:00,
2013-05-30 11:02:00,56.0,49.0,30.07,SSW,199,3.0,-999.0,78,-99.99,,,-99.99,,2013-05-30 18:02:00,
2013-05-30 11:11:00,56.0,49.0,30.07,SSW,199,3.0,-999.0,78,-99.99,,,-99.99,,2013-05-30 18:11:00,
2013-05-30 11:21:00,57.0,48.0,30.07,SE,142,4.0,-999.0,73,-99.99,,,-99.99,,2013-05-30 18:21:00,
2013-05-30 11:32:00,59.0,50.0,30.07,SSW,192,4.0,-999.0,71,-99.99,,,-99.99,,2013-05-30 18:32:00,
2013-05-30 11:42:00,59.0,50.0,30.07,SSW,192,4.0,-999.0,71,-99.99,,,-99.99,,2013-05-30 18:42:00,
2013-05-30 11:51:00,61.0,50.0,30.08,SSE,165,5.0,-999.0,68,-99.99,,,-99.99,,2013-05-30 18:51:00,
2013-05-30 12:01:00,61.0,50.0,30.08,South,175,4.0,-999.0,66,-99.99,,,-99.99,,2013-05-30 19:01:00,
2013-05-30 12:11:00,61.0,50.0,30.08,South,175,4.0,-999.0,66,-99.99,,,-99.99,,2013-05-30 19:11:00,
2013-05-30 12:22:00,61.0,50.0,30.08,South,175,4.0,-999.0,66,-99.99,,,-99.99,,2013-05-30 19:22:00,
2013-05-30 12:32:00,62.0,50.0,30.08,WSW,237,4.0,-999.0,65,-99.99,,,-99.99,,2013-05-30 19:32:00,
2013-05-30 12:42:00,62.0,50.0,30.08,WSW,237,4.0,-999.0,65,-99.99,,,-99.99,,2013-05-30 19:42:00,
2013-05-30 12:52:00,62.0,50.0,30.08,ESE,109,4.0,-999.0,64,-99.99,,,-99.99,,2013-05-30 19:52:00,
2013-05-30 13:01:00,61.0,48.0,30.08,SW,214,4.0,-999.0,62,-99.99,,,-99.99,,2013-05-30 20:01:00,
2013-05-30 13:11:00,61.0,48.0,30.08,SW,214,4.0,-999.0,62,-99.99,,,-99.99,,2013-05-30 20:11:00,
2013-05-30 13:22:00,61.0,47.0,30.09,SSE,148,4.0,-999.0,60,-99.99,,,-99.99,,2013-05-30 20:22:00,
2013-05-30 13:33:00,60.0,47.0,30.09,South,169,4.0,-999.0,63,-99.99,,,-99.99,,2013-05-30 20:33:00,
2013-05-30 13:41:00,60.0,47.0,30.09,South,169,4.0,-999.0,63,-99.99,,,-99.99,,2013-05-30 20:41:00,
2013-05-30 13:52:00,60.0,49.0,30.09,SSE,157,5.0,-999.0,66,-99.99,,,-99.99,,2013-05-30 20:52:00,
2013-05-30 14:01:00,62.0,49.0,30.09,SE,144,4.0,-999.0,62,-99.99,,,-99.99,,2013-05-30 21:01:00,
2013-05-30 14:11:00,62.0,49.0,30.09,SE,144,4.0,-999.0,62,-99.99,,,-99.99,,2013-05-30 21:11:00,
2013-05-30 14:22:00,61.0,50.0,30.10,SSE,161,4.0,-999.0,66,-99.99,,,-99.99,,2013-05-30 21:22:00,
2013-05-30 14:33:00,60.0,49.0,30.10,SSE,165,4.0,-999.0,67,-99.99,,,-99.99,,2013-05-30 21:33:00,
2013-05-30 14:42:00,60.0,49.0,30.10,SSE,165,4.0,-999.0,67,-99.99,,,-99.99,,2013-05-30 21:42:00,
2013-05-30 14:53:00,60.0,49.0,30.10,SSE,168,2.0,-999.0,68,-99.99,,,-99.99,,2013-05-30 21:53:00,
2013-05-30 15:02:00,62.0,51.0,30.10,South,174,4.0,-999.0,67,-99.99,,,-99.99,,2013-05-30 22:02:00,
2013-05-30 15:12:00,62.0,51.0,30.10,South,174,4.0,-999.0,67,-99.99,,,-99.99,,2013-05-30 22:12:00,
2013-05-30 15:22:00,63.0,49.0,30.10,SE,138,4.0,-999.0,60,-99.99,,,-99.99,,2013-05-30 22:22:00,
2013-05-30 15:32:00,63.0,49.0,30.11,SSW,210,5.0,-999.0,61,-99.99,,,-99.99,,2013-05-30 22:32:00,
2013-05-30 15:42:00,63.0,51.0,30.11,SSW,211,4.0,-999.0,65,-99.99,,,-99.99,,2013-05-30 22:42:00,
2013-05-30 15:52:00,63.0,51.0,30.11,SSW,211,4.0,-999.0,65,-99.99,,,-99.99,,2013-05-30 22:52:00,
2013-05-30 16:02:00,63.0,50.0,30.10,SSE,161,4.0,-999.0,62,-99.99,,,-99.99,,2013-05-30 23:02:00,
2013-05-30 16:11:00,63.0,50.0,30.10,SSE,161,4.0,-999.0,62,-99.99,,,-99.99,,2013-05-30 23:11:00,
2013-05-30 16:21:00,60.0,48.0,30.11,SSE,163,4.0,-999.0,65,-99.99,,,-99.99,,2013-05-30 23:21:00,
2013-05-30 16:31:00,59.0,49.0,30.11,SSW,200,4.0,-999.0,69,-99.99,,,-99.99,,2013-05-30 23:31:00,
2013-05-30 16:41:00,59.0,49.0,30.11,SSW,200,4.0,-999.0,69,-99.99,,,-99.99,,2013-05-30 23:41:00,
2013-05-30 16:52:00,59.0,49.0,30.11,WSW,246,3.0,-999.0,70,-99.99,,,-99.99,,2013-05-30 23:52:00,
2013-05-30 17:01:00,59.0,50.0,30.11,SSE,157,3.0,-999.0,71,-99.99,,,-99.99,,2013-05-31 00:01:00,
2013-05-30 17:11:00,59.0,50.0,30.11,SSE,157,3.0,-999.0,71,-99.99,,,-99.99,,2013-05-31 00:11:00,
2013-05-30 17:21:00,59.0,49.0,30.11,South,172,3.0,-999.0,70,-99.99,,,-99.99,,2013-05-31 00:21:00,
2013-05-30 17:32:00,59.0,49.0,30.11,South,176,3.0,-999.0,70,-99.99,,,-99.99,,2013-05-31 00:32:00,
2013-05-30 17:41:00,60.0,50.0,30.11,South,176,5.0,-999.0,70,-99.99,,,-99.99,,2013-05-31 00:41:00,
2013-05-30 17:51:00,60.0,50.0,30.11,South,176,5.0,-999.0,70,-99.99,,,-99.99,,2013-05-31 00:51:00,
2013-05-30 18:01:00,61.0,50.0,30.11,South,182,6.0,-999.0,67,-99.99,,,-99.99,,2013-05-31 01:01:00,
2013-05-30 18:11:00,61.0,50.0,30.11,South,182,6.0,-999.0,67,-99.99,,,-99.99,,2013-05-31 01:11:00,
2013-05-30 18:21:00,59.0,48.0,30.11,South,180,3.0,-999.0,68,-99.99,,,-99.99,,2013-05-31 01:21:00,
2013-05-30 18:31:00,59.0,49.0,30.11,South,183,3.0,-999.0,70,-99.99,,,-99.99,,2013-05-31 01:31:00,
2013-05-30 18:42:00,58.0,49.0,30.12,South,181,3.0,-999.0,71,-99.99,,,-99.99,,2013-05-31 01:42:00,
2013-05-30 18:51:00,58.0,49.0,30.12,South,181,3.0,-999.0,71,-99.99,,,-99.99,,2013-05-31 01:51:00,
2013-05-30 19:02:00,58.0,49.0,30.12,ESE,118,2.0,-999.0,72,-99.99,,,-99.99,,2013-05-31 02:02:00,
2013-05-30 19:11:00,58.0,49.0,30.12,ESE,118,2.0,-999.0,72,-99.99,,,-99.99,,2013-05-31 02:11:00,
2013-05-30 19:21:00,58.0,49.0,30.12,South,171,3.0,-999.0,71,-99.99,,,-99.99,,2013-05-31 02:21:00,
2013-05-30 19:32:00,58.0,49.0,30.13,South,172,3.0,-999.0,71,-99.99,,,-99.99,,2013-05-31 02:32:00,
2013-05-30 19:41:00,58.0,49.0,30.13,South,172,3.0,-999.0,71,-99.99,,,-99.99,,2013-05-31 02:41:00,
2013-05-30 19:51:00,58.0,49.0,30.14,SSE,167,2.0,-999.0,73,-99.99,,,-99.99,,2013-05-31 02:51:00,
2013-05-30 20:01:00,57.0,49.0,30.14,South,184,3.0,-999.0,74,-99.99,,,-99.99,,2013-05-31 03:01:00,
2013-05-30 20:11:00,57.0,49.0,30.14,South,184,3.0,-999.0,74,-99.99,,,-99.99,,2013-05-31 03:11:00,
2013-05-30 20:21:00,57.0,49.0,30.15,SSE,165,3.0,-999.0,75,-99.99,,,-99.99,,2013-05-31 03:21:00,
2013-05-30 20:33:00,56.0,48.0,30.15,South,180,3.0,-999.0,75,-99.99,,,-99.99,,2013-05-31 03:33:00,
2013-05-30 20:43:00,56.0,48.0,30.15,South,180,3.0,-999.0,75,-99.99,,,-99.99,,2013-05-31 03:43:00,
2013-05-30 20:53:00,56.0,48.0,30.15,South,180,3.0,-999.0,75,-99.99,,,-99.99,,2013-05-31 03:53:00,
2013-05-30 21:02:00,56.0,48.0,30.15,South,171,3.0,-999.0,75,-99.99,,,-99.99,,2013-05-31 04:02:00,
2013-05-30 21:12:00,56.0,48.0,30.15,South,171,3.0,-999.0,75,-99.99,,,-99.99,,2013-05-31 04:12:00,
2013-05-30 21:22:00,55.0,48.0,30.15,SSE,158,2.0,-999.0,77,-99.99,,,-99.99,,2013-05-31 04:22:00,
2013-05-30 21:32:00,55.0,49.0,30.16,South,180,1.0,-999.0,79,-99.99,,,-99.99,,2013-05-31 04:32:00,
2013-05-30 21:42:00,55.0,49.0,30.16,South,180,1.0,-999.0,79,-99.99,,,-99.99,,2013-05-31 04:42:00,
2013-05-30 21:52:00,55.0,49.0,30.16,SE,144,2.0,-999.0,80,-99.99,,,-99.99,,2013-05-31 04:52:00,
2013-05-30 22:02:00,55.0,49.0,30.17,SSE,152,2.0,-999.0,80,-99.99,,,-99.99,,2013-05-31 05:02:00,
2013-05-30 22:12:00,55.0,49.0,30.17,SSE,152,2.0,-999.0,80,-99.99,,,-99.99,,2013-05-31 05:12:00,
2013-05-30 22:22:00,55.0,49.0,30.18,SW,219,1.0,-999.0,81,-99.99,,,-99.99,,2013-05-31 05:22:00,
2013-05-30 22:31:00,55.0,50.0,30.18,SSE,163,2.0,-999.0,82,-99.99,,,-99.99,,2013-05-31 05:31:00,
2013-05-30 22:41:00,55.0,50.0,30.18,SSE,163,2.0,-999.0,82,-99.99,,,-99.99,,2013-05-31 05:41:00,
2013-05-30 22:51:00,54.0,49.0,30.19,SSE,167,2.0,-999.0,83,-99.99,,,-99.99,,2013-05-31 05:51:00,
2013-05-30 23:01:00,54.0,49.0,30.19,South,183,1.0,-999.0,84,-99.99,,,-99.99,,2013-05-31 06:01:00,
2013-05-30 23:11:00,54.0,49.0,30.19,South,183,1.0,-999.0,84,-99.99,,,-99.99,,2013-05-31 06:11:00,
2013-05-30 23:21:00,53.0,49.0,30.20,South,191,1.0,-999.0,85,-99.99,,,-99.99,,2013-05-31 06:21:00,
2013-05-30 23:31:00,53.0,49.0,30.19,South,191,0.0,-999.0,86,-99.99,,,-99.99,,2013-05-31 06:31:00,
2013-05-30 23:41:00,53.0,49.0,30.19,South,191,0.0,-999.0,86,-99.99,,,-99.99,,2013-05-31 06:41:00,
2013-05-30 23:51:00,53.0,49.0,30.20,South,188,1.0,-999.0,86,-99.99,,,-99.99,,2013-05-31 06:51:00,